Back to catalog

COSMOS 2251 DEB

AliveLEO
NORAD 33972·DEBRIS·🇷🇺 Russia

Launched Jun 16, 1993 from Plesetsk Cosmodrome

Loading…

Next Passes (next 24 hours)

TLE

FreshSource: Space-Track

Epoch: Sep 14, 2026, 08:48 UTC

1 33972U 93036FF  26257.36714595  .00003767  00000-0  11366-2 0  9999
2 33972  73.9951  41.8274 0120739 145.2116 242.7946 14.38660810910357

Track COSMOS 2251 DEB in real time with AllMySat

Download on the App Store